ZF1RC George Town KY current weather conditions

sailwx.info

Wind from 154 at 0 knots gusting 1

Air temperature 32.8° C
Dewpoint 24.5° C

Last reported at 2017-Jun-25 17:00 UTC.
Time now 2017-Jun-25 17:20 UTC

Location: N 19°16' W 081°23'.
View on Google Maps.

See reports from other nearby stations

  
Tides and Currents Weather Stations Pressure Air Temp Water Temp Dewpoint Dewpoint Depression Visibility Wind Speed Wind Dir Waves Ship Positions
date/time (UTC)wind fromknots sea level pressurealtimeterstation pressurevisibilityair tempwater tempwave heightnotes
2017-Jun-25 17:10 052 32.8
2017-Jun-25 17:00 154 0 gusting 1 32.8
2017-Jun-25 16:50 086 0 gusting 0 32.2
2017-Jun-25 16:40 219 32.2
2017-Jun-25 16:30 110 31.7
2017-Jun-25 16:20 108 0 gusting 1 31.7
2017-Jun-25 16:10 216 0 gusting 4 32.2
2017-Jun-25 16:00 119 0 gusting 6 32.2
2017-Jun-25 15:50 130 31.7
2017-Jun-25 15:40 225 0 gusting 1 31.7
2017-Jun-25 15:30 168 0 gusting 1 31.7
2017-Jun-25 15:20 109 0 gusting 0 32.2
2017-Jun-25 15:10 130 31.7
2017-Jun-25 15:00 136 31.7
2017-Jun-25 14:50 290 0 gusting 0 31.7
2017-Jun-25 14:40 013 0 gusting 0 31.7
2017-Jun-25 14:30 116 31.7
2017-Jun-25 14:20 105 0 gusting 2 31.7
2017-Jun-25 14:10 079 31.1
2017-Jun-25 14:00 157 0 gusting 2 31.1
2017-Jun-25 13:50 141 30.6
2017-Jun-25 13:40 099 30.6
2017-Jun-25 13:30 081 30.0
2017-Jun-25 13:20 145 3 gusting 6 30.0
2017-Jun-25 13:10 074 1 gusting 6 29.4
2017-Jun-25 13:00 030 1 gusting 5 28.9
2017-Jun-25 12:50 071 1 gusting 1 27.8
2017-Jun-25 12:40 065 0 gusting 7 28.3
2017-Jun-25 12:30 056 1 gusting 6 28.9
2017-Jun-25 12:20 089 1 gusting 5 28.9
2017-Jun-25 12:10 065 0 gusting 1 28.3
2017-Jun-25 12:00 113 1 gusting 4 27.8
2017-Jun-25 11:50 125 2 gusting 5 27.2
2017-Jun-25 11:40 083 3 gusting 4 27.2
2017-Jun-25 11:30 072 1 gusting 4 26.7
2017-Jun-25 11:20 106 1 gusting 2 26.7
2017-Jun-25 11:10 060 2 gusting 2 26.7
2017-Jun-25 11:00 104 2 gusting 2 26.7
2017-Jun-25 10:50 054 1 gusting 2 26.1
2017-Jun-25 10:40 106 2 gusting 2 26.1
2017-Jun-25 10:30 096 0 gusting 1 26.1
2017-Jun-25 10:20 084 0 gusting 1 26.1
2017-Jun-25 10:10 077 1 gusting 1 26.1
2017-Jun-25 10:00 081 0 gusting 2 26.1
2017-Jun-25 09:50 087 0 gusting 1 26.1
2017-Jun-25 09:40 057 0 gusting 1 26.1
2017-Jun-25 09:30 104 26.1
2017-Jun-25 09:20 082 0 gusting 1 26.1
2017-Jun-25 09:10 108 0 gusting 2 26.1
2017-Jun-25 09:00 076 0 gusting 1 26.1
2017-Jun-25 08:50 099 26.1
2017-Jun-25 08:40 098 26.1
2017-Jun-25 08:30 093 1 gusting 1 26.1
2017-Jun-25 08:20 079 26.1
2017-Jun-25 08:10 118 26.1
2017-Jun-25 08:00 106 0 gusting 1 26.1
2017-Jun-25 07:50 082 26.1
2017-Jun-25 07:40 050 25.6
2017-Jun-25 07:30 079 0 gusting 0 25.6
2017-Jun-25 07:20 109 0 gusting 1 25.6
2017-Jun-25 07:10 087 25.6
2017-Jun-25 07:00 067 25.6
2017-Jun-25 06:50 061 0 gusting 1 25.6
2017-Jun-25 06:40 095 0 gusting 1 25.6
2017-Jun-25 06:30 094 0 gusting 1 25.6
2017-Jun-25 06:20 116 25.0
2017-Jun-25 06:10 063 25.6
2017-Jun-25 06:00 079 0 gusting 0 25.6
2017-Jun-25 05:50 018 25.6
2017-Jun-25 05:40 052 25.6
2017-Jun-25 05:30 038 25.6
2017-Jun-25 05:20 026 25.6
2017-Jun-25 05:10 031 0 gusting 0 26.1
2017-Jun-25 05:00 060 0 gusting 0 26.1
2017-Jun-25 04:50 107 1 gusting 1 26.1
2017-Jun-25 04:40 052 0 gusting 0 26.1
2017-Jun-25 04:30 066 0 gusting 1 26.1
2017-Jun-25 04:20 050 26.1
2017-Jun-25 04:10 098 0 gusting 0 26.1
2017-Jun-25 04:00 093 1 gusting 1 26.1
2017-Jun-25 03:50 052 0 gusting 0 26.1
2017-Jun-25 03:40 107 26.1
2017-Jun-25 03:30 057 0 gusting 2 26.1
2017-Jun-25 03:20 014 1 gusting 1 26.7
2017-Jun-25 03:10 066 1 gusting 2 26.7
2017-Jun-25 03:00 117 0 gusting 2 26.7
2017-Jun-25 02:50 091 0 gusting 2 26.7
2017-Jun-25 02:40 084 0 gusting 1 26.7
2017-Jun-25 02:30 089 0 gusting 2 26.7
2017-Jun-25 02:20 094 2 gusting 5 26.7
2017-Jun-25 02:10 079 1 gusting 5 27.2
2017-Jun-25 02:00 097 1 gusting 2 27.2
2017-Jun-25 01:50 096 1 gusting 4 27.2
2017-Jun-25 01:40 114 2 gusting 4 27.2
2017-Jun-25 01:30 116 1 gusting 4 27.2
2017-Jun-25 01:20 066 3 gusting 4 27.2
2017-Jun-25 01:10 100 2 gusting 4 27.2
2017-Jun-25 01:00 118 2 gusting 5 27.8
2017-Jun-25 00:50 097 2 gusting 4 27.8
2017-Jun-25 00:40 061 0 gusting 5 27.8
2017-Jun-25 00:30 064 3 gusting 6 27.8
2017-Jun-25 00:20 129 4 gusting 5 28.3
2017-Jun-25 00:10 105 4 gusting 5 28.3
2017-Jun-25 00:00 150 0 gusting 4 28.3
2017-Jun-24 23:50 105 0 gusting 4 28.9
2017-Jun-24 23:40 102 0 gusting 1 28.9
2017-Jun-24 23:30 230 1 gusting 1 29.4
2017-Jun-24 23:20 294 0 gusting 5 29.4
2017-Jun-24 23:10 090 1 gusting 4 29.4
2017-Jun-24 23:00 140 0 gusting 2 29.4
2017-Jun-24 22:54 194 0 gusting 0 29.4
2017-Jun-24 22:50 101 0 gusting 2 29.4
2017-Jun-24 22:40 102 0 gusting 4 29.4
2017-Jun-24 22:30 137 4 gusting 7 29.4
2017-Jun-24 22:20 014 3 gusting 4 29.4
2017-Jun-24 22:10 076 5 gusting 6 28.9
2017-Jun-24 22:00 039 4 gusting 5 29.4
2017-Jun-24 21:50 124 5 gusting 6 28.9
2017-Jun-24 21:40 069 1 gusting 6 29.4
2017-Jun-24 21:30 097 2 gusting 6 29.4
2017-Jun-24 21:20 087 2 gusting 6 29.4
2017-Jun-24 21:10 032 2 gusting 6 29.4
2017-Jun-24 21:00 122 2 gusting 6 29.4
2017-Jun-24 20:50 028 4 gusting 6 29.4
2017-Jun-24 20:40 112 4 gusting 6 29.4
2017-Jun-24 20:30 085 2 gusting 7 29.4
2017-Jun-24 20:20 013 5 gusting 6 29.4
2017-Jun-24 20:10 017 2 gusting 5 29.4
2017-Jun-24 20:00 039 5 gusting 6 29.4
2017-Jun-24 19:50 029 5 gusting 6 29.4
2017-Jun-24 19:40 017 3 gusting 6 30.0
2017-Jun-24 19:30 096 2 gusting 6 29.4
2017-Jun-24 19:20 072 3 gusting 5 29.4
2017-Jun-24 19:10 017 2 gusting 4 29.4
2017-Jun-24 19:00 040 2 gusting 4 29.4
2017-Jun-24 18:50 059 2 gusting 4 28.9
2017-Jun-24 18:40 117 2 gusting 5 28.9
2017-Jun-24 18:30 021 2 gusting 7 28.9
2017-Jun-24 18:20 034 1 gusting 4 29.4
2017-Jun-24 18:10 328 2 gusting 5 29.4
2017-Jun-24 18:00 081 2 gusting 6 29.4
2017-Jun-24 17:50 046 1 gusting 6 29.4
2017-Jun-24 17:40 074 5 gusting 5 29.4
2017-Jun-24 17:30 112 4 gusting 6 29.4
2017-Jun-24 17:20 066 2 gusting 6 30.0
2017-Jun-24 17:10 086 0 gusting 6 30.0
2017-Jun-24 17:00 118 1 gusting 4 30.6
2017-Jun-24 16:50 090 30.6
2017-Jun-24 16:40 111 2 gusting 2 31.1
2017-Jun-24 16:30 168 0 gusting 1 31.7
2017-Jun-24 16:20 165 31.7
2017-Jun-24 16:10 158 0 gusting 1 31.7
2017-Jun-24 16:00 100 31.7
2017-Jun-24 15:50 196 2 gusting 5 31.1
2017-Jun-24 15:40 194 31.1
2017-Jun-24 15:30 208 31.1
2017-Jun-24 15:20 118 31.1
2017-Jun-24 15:10 098 0 gusting 2 31.1
2017-Jun-24 15:00 133 0 gusting 0 31.1
2017-Jun-24 14:50 015 31.1
2017-Jun-24 14:40 104 30.6
2017-Jun-24 14:30 137 30.6
2017-Jun-24 14:20 235 31.1
2017-Jun-24 14:10 242 0 gusting 0 31.1
2017-Jun-24 14:00 179 30.6
2017-Jun-24 13:50 133 31.1
2017-Jun-24 13:40 210 31.1
2017-Jun-24 13:30 124 31.1
2017-Jun-24 13:20 146 30.6
2017-Jun-24 13:10 191 30.6
2017-Jun-24 13:00 114 30.6
2017-Jun-24 12:50 152 0 gusting 1 30.0
2017-Jun-24 12:40 072 0 gusting 0 30.0
2017-Jun-24 12:30 030 0 gusting 0 29.4
2017-Jun-24 12:20 084 0 gusting 0 28.9
2017-Jun-24 12:10 175 0 gusting 2 28.3
2017-Jun-24 12:00 103 0 gusting 2 27.2
2017-Jun-24 11:50 081 26.7
2017-Jun-24 11:40 073 0 gusting 0 26.7
2017-Jun-24 11:30 079 0 gusting 0 26.7
2017-Jun-24 11:20 066 0 gusting 1 26.1
2017-Jun-24 11:10 083 26.1
2017-Jun-24 11:00 076 26.1
2017-Jun-24 10:50 122 26.1
2017-Jun-24 10:40 139 26.1
2017-Jun-24 10:30 076 0 gusting 1 26.1
2017-Jun-24 10:20 066 0 gusting 1 26.1
2017-Jun-24 10:10 052 0 gusting 0 26.1
2017-Jun-24 10:00 078 0 gusting 0 26.7
2017-Jun-24 09:50 056 0 gusting 0 26.1
2017-Jun-24 09:40 071 0 gusting 0 26.7
2017-Jun-24 09:30 089 0 gusting 0 26.7
2017-Jun-24 09:20 073 0 gusting 0 26.7
2017-Jun-24 09:10 053 0 gusting 0 26.7
2017-Jun-24 09:00 049 0 gusting 1 27.2
2017-Jun-24 08:50 082 27.2
2017-Jun-24 08:40 073 0 gusting 0 27.2
2017-Jun-24 08:30 128 27.2
2017-Jun-24 08:20 085 27.8
2017-Jun-24 08:10 154 27.8
2017-Jun-24 08:00 121 27.8
2017-Jun-24 07:50 067 27.8
2017-Jun-24 07:40 113 27.8
2017-Jun-24 07:30 130 0 gusting 0 27.8
2017-Jun-24 07:20 122 27.8
2017-Jun-24 07:10 089 27.8
2017-Jun-24 07:00 021 27.8
2017-Jun-24 06:50 109 27.8
2017-Jun-24 06:40 129 27.8
2017-Jun-24 06:30 163 27.8
2017-Jun-24 06:20 120 27.8
2017-Jun-24 06:10 115 27.8
2017-Jun-24 06:00 163 27.8
2017-Jun-24 05:50 088 27.8
2017-Jun-24 05:40 075 0 gusting 1 27.8
2017-Jun-24 05:30 067 27.8
2017-Jun-24 05:20 124 0 gusting 0 27.8
2017-Jun-24 05:10 201 27.8
2017-Jun-24 05:00 097 0 gusting 0 27.8
2017-Jun-24 04:50 108 0 gusting 0 28.3
2017-Jun-24 04:40 046 27.8
2017-Jun-24 04:30 092 28.3
2017-Jun-24 04:20 105 1 gusting 6 28.3
2017-Jun-24 04:10 130 1 gusting 2 28.3
2017-Jun-24 04:00 184 28.3
2017-Jun-24 03:50 100 1 gusting 2 28.3
2017-Jun-24 03:40 190 28.3
2017-Jun-24 03:30 154 28.3
2017-Jun-24 03:20 119 28.3
2017-Jun-24 03:10 057 28.3
2017-Jun-24 03:00 126 1 gusting 2 28.3
2017-Jun-24 02:50 116 28.3
2017-Jun-24 02:40 137 28.3
2017-Jun-24 02:30 352 28.3
2017-Jun-24 02:20 125 0 gusting 0 28.3
2017-Jun-24 02:10 059 28.3
2017-Jun-24 02:00 203 0 gusting 1 28.3
2017-Jun-24 01:50 144 0 gusting 2 28.3
2017-Jun-24 01:40 137 1 gusting 1 28.3
2017-Jun-24 01:30 138 0 gusting 2 28.3
2017-Jun-24 01:20 166 0 gusting 1 28.3
2017-Jun-24 01:10 331 0 gusting 5 28.3
2017-Jun-24 01:00 28.3
2017-Jun-24 00:50 105 1 gusting 4 28.3
2017-Jun-24 00:40 071 1 gusting 5 28.3
2017-Jun-24 00:30 092 28.3
2017-Jun-24 00:20 068 0 gusting 1 28.9
2017-Jun-24 00:10 154 0 gusting 2 28.9
2017-Jun-24 00:00 102 1 gusting 2 28.9
2017-Jun-23 23:50 137 0 gusting 2 29.4
2017-Jun-23 23:40 054 0 gusting 1 29.4
2017-Jun-23 23:30 056 0 gusting 0 29.4
2017-Jun-23 23:20 127 0 gusting 0 29.4
2017-Jun-23 23:10 173 0 gusting 1 30.0
2017-Jun-23 23:00 074 2 gusting 5 30.0
2017-Jun-23 22:54 219 30.0
2017-Jun-23 22:50 197 0 gusting 1 30.6
2017-Jun-23 22:40 168 0 gusting 1 30.6
2017-Jun-23 22:30 010 30.6
2017-Jun-23 22:20 050 0 gusting 0 30.6
2017-Jun-23 22:10 105 30.6
2017-Jun-23 22:00 101 0 gusting 0 30.6
2017-Jun-23 21:50 114 0 gusting 6 30.6
2017-Jun-23 21:40 122 0 gusting 0 30.6
2017-Jun-23 21:30 306 31.1
2017-Jun-23 21:20 077 0 gusting 5 31.1
2017-Jun-23 21:10 200 0 gusting 1 31.1
2017-Jun-23 21:00 001 0 gusting 1 31.1
2017-Jun-23 20:50 113 0 gusting 1 31.1
2017-Jun-23 20:40 124 0 gusting 1 31.1
2017-Jun-23 20:30 044 0 gusting 0 31.7
2017-Jun-23 20:20 266 31.7
2017-Jun-23 20:10 164 1 gusting 2 31.7
2017-Jun-23 20:00 207 1 gusting 2 31.7
2017-Jun-23 19:50 066 32.2
2017-Jun-23 19:40 250 1 gusting 1 32.2
2017-Jun-23 19:30 014 0 gusting 6 32.2
2017-Jun-23 19:20 116 0 gusting 6 32.8
2017-Jun-23 19:10 130 0 gusting 1 32.8
2017-Jun-23 19:00 077 0 gusting 1 32.2
2017-Jun-23 18:50 154 1 gusting 2 31.7
2017-Jun-23 18:40 152 0 gusting 5 31.7
2017-Jun-23 18:30 145 4 gusting 7 31.7
2017-Jun-23 18:20 002 0 gusting 2 31.7
2017-Jun-23 18:10 071 0 gusting 6 32.2
2017-Jun-23 18:00 183 0 gusting 8 32.2
2017-Jun-23 17:50 214 32.2
2017-Jun-23 17:40 134 1 gusting 2 31.7
2017-Jun-23 17:30 171 0 gusting 0 31.7
2017-Jun-23 17:20 017 2 gusting 5 31.7
2017-Jun-23 17:10 197 0 gusting 7 31.7
2017-Jun-23 17:00 072 2 gusting 4 32.2